• In Deutschland
  • Länderverzeichnis
  • Für 7 Tage
  • Wassertemperatur
  • Satellitenkarten
  • Wetterkarte
  • Widgets
  • user-avatar
    Anmelden

    Stündliche Wetter Bad Wünnenberg

    Heute, 13 Dezember, Mittwoch

    Zeit Temperatur Niederschläge Wind Luftdruck Luftfeuchtigkeit
    00:00 -4°C° 0 mm 3 m/S 726 mmHg 91%
    01:00 -4°C° 0 mm 3 m/S 727 mmHg 92%
    02:00 -4°C° 0 mm 3 m/S 726 mmHg 91%
    03:00 -4°C° 0 mm 4 m/S 726 mmHg 90%
    04:00 -4°C° 0 mm 4 m/S 725 mmHg 89%
    05:00 -4°C° 0 mm 5 m/S 725 mmHg 87%
    06:00 -4°C° 0 mm 5 m/S 724 mmHg 85%
    07:00 -2°C° 0 mm 5 m/S 724 mmHg 84%
    08:00 -3°C° 0 mm 6 m/S 723 mmHg 82%
    09:00 -2°C° 0 mm 6 m/S 723 mmHg 81%
    10:00 -2°C° 0 mm 7 m/S 722 mmHg 80%
    11:00 -1°C° 0,4 mm 7 m/S 721 mmHg 80%
    12:00 -1°C° 0,4 mm 7 m/S 720 mmHg 79%
    13:00 0°C° 0,4 mm 8 m/S 719 mmHg 79%
    14:00 0°C° 0,9 mm 8 m/S 718 mmHg 80%
    15:00 0°C° 0,9 mm 8 m/S 717 mmHg 81%
    16:00 0°C° 0,9 mm 7 m/S 716 mmHg 83%
    17:00 0°C° 0,3 mm 7 m/S 715 mmHg 84%
    18:00 +1°C° 0,3 mm 6 m/S 714 mmHg 85%
    19:00 +1°C° 0,3 mm 6 m/S 714 mmHg 87%
    20:00 +1°C° 0,1 mm 6 m/S 712 mmHg 86%
    21:00 +2°C° 0,1 mm 7 m/S 711 mmHg 86%
    22:00 +2°C° 0,1 mm 7 m/S 709 mmHg 85%
    23:00 +2°C° 1,5 mm 7 m/S 709 mmHg 84%

    Morgen, 14 Dezember, Donnerstag

    Zeit Temperatur Niederschläge Wind Luftdruck Luftfeuchtigkeit
    00:00 +2°C° 1,5 mm 7 m/S 709 mmHg 83%
    01:00 +1°C° 1,5 mm 6 m/S 709 mmHg 82%
    02:00 +1°C° 0,1 mm 6 m/S 709 mmHg 82%
    03:00 0°C° 0,1 mm 5 m/S 709 mmHg 82%
    04:00 -1°C° 0,1 mm 4 m/S 710 mmHg 83%
    05:00 -2°C° 1 mm 6 m/S 710 mmHg 83%
    06:00 -2°C° 1 mm 8 m/S 710 mmHg 83%
    07:00 -3°C° 1 mm 10 m/S 710 mmHg 83%
    08:00 -3°C° 0,3 mm 9 m/S 711 mmHg 81%
    09:00 -2°C° 0,3 mm 8 m/S 712 mmHg 80%
    10:00 -2°C° 0,3 mm 8 m/S 713 mmHg 78%
    11:00 -2°C° 0 mm 7 m/S 714 mmHg 78%
    12:00 -2°C° 0 mm 7 m/S 714 mmHg 77%
    13:00 -1°C° 0 mm 7 m/S 714 mmHg 77%
    14:00 -1°C° 0,1 mm 6 m/S 713 mmHg 80%
    15:00 -1°C° 0,1 mm 5 m/S 713 mmHg 82%
    16:00 -1°C° 0,1 mm 5 m/S 713 mmHg 84%
    17:00 -1°C° 0 mm 5 m/S 712 mmHg 86%
    18:00 -1°C° 0 mm 4 m/S 712 mmHg 87%
    19:00 -1°C° 0 mm 4 m/S 711 mmHg 89%
    20:00 -2°C° 0 mm 4 m/S 711 mmHg 90%
    21:00 -1°C° 0 mm 3 m/S 711 mmHg 91%
    22:00 -1°C° 0 mm 3 m/S 710 mmHg 92%
    23:00 -1°C° 0 mm 3 m/S 710 mmHg 92%

    übermorgen, 15 Dezember, Freitag

    Zeit Temperatur Niederschläge Wind Luftdruck Luftfeuchtigkeit
    00:00 -1°C° 0 mm 3 m/S 711 mmHg 93%
    01:00 -1°C° 0 mm 3 m/S 711 mmHg 93%
    02:00 -1°C° 0 mm 3 m/S 711 mmHg 92%
    03:00 -2°C° 0 mm 3 m/S 711 mmHg 92%
    04:00 -3°C° 0 mm 4 m/S 712 mmHg 91%
    05:00 -3°C° 0 mm 4 m/S 712 mmHg 91%
    06:00 -4°C° 0 mm 3 m/S 713 mmHg 90%
    07:00 -4°C° 0 mm 3 m/S 713 mmHg 90%
    08:00 -4°C° 0 mm 3 m/S 713 mmHg 89%
    09:00 -2°C° 0 mm 3 m/S 714 mmHg 88%
    10:00 -2°C° 0 mm 3 m/S 714 mmHg 87%
    11:00 -1°C° 0,2 mm 3 m/S 714 mmHg 88%
    12:00 0°C° 0,2 mm 3 m/S 714 mmHg 88%
    13:00 0°C° 0,2 mm 3 m/S 714 mmHg 88%
    14:00 0°C° 0,1 mm 3 m/S 714 mmHg 90%
    15:00 0°C° 0,1 mm 3 m/S 714 mmHg 91%
    16:00 0°C° 0,1 mm 3 m/S 715 mmHg 93%
    17:00 +1°C° 0,1 mm 2 m/S 715 mmHg 93%
    18:00 +1°C° 0,1 mm 2 m/S 715 mmHg 94%
    19:00 +1°C° 0,1 mm 2 m/S 715 mmHg 95%
    20:00 -1°C° 0 mm 2 m/S 716 mmHg 96%
    21:00 -1°C° 0 mm 2 m/S 716 mmHg 96%
    22:00 -1°C° 0 mm 2 m/S 716 mmHg 97%
    23:00 -1°C° 0 mm 2 m/S 716 mmHg 96%

    16 Dezember, Samstag

    Zeit Temperatur Niederschläge Wind Luftdruck Luftfeuchtigkeit
    00:00 -1°C° 0 mm 2 m/S 717 mmHg 95%
    01:00 -1°C° 0 mm 3 m/S 717 mmHg 95%
    02:00 -1°C° 0 mm 3 m/S 717 mmHg 94%
    03:00 -1°C° 0 mm 3 m/S 717 mmHg 94%
    04:00 -1°C° 0 mm 3 m/S 718 mmHg 94%
    05:00 -2°C° 0,1 mm 3 m/S 718 mmHg 93%
    06:00 -3°C° 0,1 mm 4 m/S 718 mmHg 93%
    07:00 -3°C° 0,1 mm 4 m/S 719 mmHg 92%
    08:00 -2°C° 0 mm 4 m/S 719 mmHg 91%
    09:00 -2°C° 0 mm 5 m/S 720 mmHg 89%
    10:00 -2°C° 0 mm 5 m/S 720 mmHg 87%
    11:00 -1°C° 0,1 mm 5 m/S 720 mmHg 86%
    12:00 -1°C° 0,1 mm 5 m/S 721 mmHg 85%
    13:00 -1°C° 0,1 mm 6 m/S 721 mmHg 85%
    14:00 -1°C° 0,1 mm 5 m/S 722 mmHg 86%
    15:00 -1°C° 0,1 mm 5 m/S 722 mmHg 87%
    16:00 -1°C° 0,1 mm 5 m/S 723 mmHg 88%
    17:00 -2°C° 0,1 mm 4 m/S 723 mmHg 89%
    18:00 -2°C° 0,1 mm 4 m/S 724 mmHg 90%
    19:00 -2°C° 0,1 mm 4 m/S 725 mmHg 91%
    20:00 -2°C° 0 mm 3 m/S 726 mmHg 91%
    21:00 -2°C° 0 mm 3 m/S 726 mmHg 92%
    22:00 -2°C° 0 mm 3 m/S 727 mmHg 93%
    23:00 -2°C° 0 mm 3 m/S 728 mmHg 93%

    17 Dezember, Sonntag

    Zeit Temperatur Niederschläge Wind Luftdruck Luftfeuchtigkeit
    00:00 -2°C° 0 mm 3 m/S 728 mmHg 93%
    01:00 -2°C° 0 mm 3 m/S 729 mmHg 93%
    02:00 -4°C° 0 mm 3 m/S 729 mmHg 93%
    03:00 -4°C° 0 mm 3 m/S 730 mmHg 93%
    04:00 -4°C° 0 mm 3 m/S 730 mmHg 93%
    05:00 -4°C° 0 mm 3 m/S 730 mmHg 94%
    06:00 -4°C° 0 mm 3 m/S 731 mmHg 94%
    07:00 -4°C° 0 mm 3 m/S 732 mmHg 94%
    08:00 -4°C° 0 mm 3 m/S 732 mmHg 93%
    09:00 -2°C° 0 mm 3 m/S 733 mmHg 93%
    10:00 -2°C° 0 mm 2 m/S 733 mmHg 92%
    11:00 -1°C° 0 mm 3 m/S 734 mmHg 91%
    12:00 -1°C° 0 mm 3 m/S 734 mmHg 89%
    13:00 0°C° 0 mm 3 m/S 734 mmHg 88%
    14:00 0°C° 0 mm 3 m/S 735 mmHg 90%
    15:00 -1°C° 0 mm 3 m/S 735 mmHg 92%
    16:00 -1°C° 0 mm 2 m/S 735 mmHg 93%
    17:00 -2°C° 0 mm 2 m/S 735 mmHg 94%
    18:00 -2°C° 0 mm 2 m/S 736 mmHg 94%
    19:00 -2°C° 0 mm 2 m/S 736 mmHg 95%
    20:00 -2°C° 0 mm 3 m/S 736 mmHg 94%
    21:00 -2°C° 0 mm 3 m/S 736 mmHg 94%
    22:00 -2°C° 0 mm 3 m/S 736 mmHg 94%
    23:00 -2°C° 0 mm 3 m/S 736 mmHg 93%

    18 Dezember, Montag

    Zeit Temperatur Niederschläge Wind Luftdruck Luftfeuchtigkeit
    00:00 -2°C° 0 mm 3 m/S 736 mmHg 93%
    01:00 -2°C° 0 mm 3 m/S 735 mmHg 92%
    02:00 -2°C° 0 mm 3 m/S 735 mmHg 91%
    03:00 -3°C° 0 mm 4 m/S 734 mmHg 90%
    04:00 -2°C° 0 mm 4 m/S 734 mmHg 90%
    05:00 -2°C° 0,4 mm 4 m/S 733 mmHg 90%
    06:00 -1°C° 0,4 mm 4 m/S 732 mmHg 91%
    07:00 -1°C° 0,4 mm 4 m/S 732 mmHg 91%
    08:00 -1°C° 1,6 mm 4 m/S 731 mmHg 92%
    09:00 -1°C° 1,6 mm 4 m/S 730 mmHg 92%
    10:00 0°C° 1,6 mm 4 m/S 730 mmHg 93%
    11:00 0°C° 0,6 mm 4 m/S 730 mmHg 95%
    12:00 0°C° 0,6 mm 4 m/S 729 mmHg 96%
    13:00 +2°C° 0,6 mm 3 m/S 729 mmHg 98%
    14:00 +2°C° 0,4 mm 3 m/S 729 mmHg 98%
    15:00 +2°C° 0,4 mm 3 m/S 729 mmHg 98%
    16:00 +3°C° 0,4 mm 4 m/S 729 mmHg 98%
    17:00 +3°C° 0,2 mm 4 m/S 730 mmHg 98%
    18:00 +3°C° 0,2 mm 4 m/S 730 mmHg 98%
    19:00 +3°C° 0,2 mm 4 m/S 731 mmHg 97%
    20:00 +3°C° 0,3 mm 4 m/S 732 mmHg 97%
    21:00 +3°C° 0,3 mm 4 m/S 732 mmHg 97%
    22:00 +2°C° 0,3 mm 3 m/S 733 mmHg 97%
    23:00 +2°C° 0,2 mm 3 m/S 734 mmHg 97%
    Mehr zeigen